Location: River Brede
(50.9167°N, 0.7167°E)
Time: 13:12:42
(UTC+00:00)

Daily predictions for brighter satellites

Satellite Brightness Start Highest point End
(mag) Time Altitude Azimuth Time Altitude Azimuth Time Altitude Azimuth
S3M 4.1 20:47:15 10° N 20:53:40 80° ENE 21:00:00 10° SSE
Ariane Rocket 3.2 20:50:01 10° SSE 20:55:03 65° ENE 21:00:07 10° N
USA 281 4.5 20:49:49 10° ESE 20:55:26 31° NE 21:01:06 10° NNW
SL-27 R/B 3.5 20:55:14 10° SSE 20:57:13 18° ESE 20:59:15 10° NE
Okean-O 3.9 20:53:59 10° SSW 20:58:07 40° W 21:02:18 10° NNW
Cosmos 1441 Rocket 3.9 20:54:49 10° NNW 20:58:19 48° W 21:01:49 10° S
Cosmos 2219 Rocket 3.0 20:55:19 10° NNW 21:00:44 43° NE 21:06:07 10° ESE
Cosmos 1400 Rocket 2.8 20:57:13 10° S 21:01:03 60° E 21:04:51 10° NNE
Meteor 1-13 Rocket 4.3 20:55:57 10° S 21:01:44 88° E 21:07:26 10° NNE
COSMOS 2428 4.3 20:57:19 10° NNW 21:02:08 27° NE 21:06:55 10° E
BREEZE-M DEB (TANK) 2.2 21:01:41 10° W 21:03:40 40° SSW 21:06:11 10° ESE
Cosmos 1908 4.2 21:00:22 10° NNW 21:03:48 42° W 21:07:13 10° SSW
Cosmos 1356 Rocket 4.1 21:00:39 10° SSE 21:04:32 38° E 21:08:27 10° NNE
Cosmos 2266 Rocket 4.1 20:59:55 10° S 21:06:15 78° E 21:12:40 10° NNE
USA 245 3.6 21:03:10 10° S 21:06:47 75° WSW 21:11:25 10° NNW
ATLAS CENTAUR R/B 1.8 21:03:47 10° S 21:06:53 30° ESE 21:10:05 10° ENE
Cosmos 1850 Rocket 4.3 21:04:04 10° S 21:09:05 49° ESE 21:14:06 10° NNE
Cosmos 1655 Rocket 4.2 21:05:36 10° S 21:11:52 62° E 21:18:11 10° NNE
Cosmos 1869 Rocket 4.2 21:07:59 10° NNW 21:12:21 57° W 21:16:43 10° S
Meteor 1-4 Rocket 3.8 21:13:07 10° SE 21:15:14 18° E 21:17:24 10° NE
Cosmos 2228 Rocket 3.4 21:11:06 10° S 21:15:32 55° E 21:20:02 10° NNE
MOS 1 Rocket 3.7 21:11:15 10° SSE 21:16:39 88° WSW 21:21:57 10° NNW
Okean O Rocket 4.2 21:14:49 10° SW 21:17:31 16° W 21:20:13 10° NW
Cosmos 1953 3.7 21:14:23 10° NNE 21:17:35 24° ENE 21:20:46 10° SE
Cosmos 1315 Rocket 4.3 21:17:28 10° SE 21:20:31 22° E 21:23:37 10° NE
Cosmos 968 Rocket 3.9 21:17:41 10° S 21:22:33 45° ESE 21:27:30 10° NE
SPOT 3 Rocket 3.6 21:18:51 10° SSE 21:24:00 82° WSW 21:29:12 10° NNW
SeaSat 1 3.1 21:19:38 10° S 21:24:24 49° WSW 21:29:12 10° NW
Cosmos 2360 Rocket 2.3 21:20:17 10° NNW 21:26:00 82° WSW 21:31:30 11° SSE
Cosmos 1741 Rocket 4.0 21:24:19 10° SSW 21:29:32 68° ESE 21:34:50 10° NNE
Cosmos 1242 Rocket 4.3 21:30:09 10° E 21:30:31 10° E 21:30:52 10° E
SPOT 5 4.4 21:27:23 10° SSW 21:31:06 28° W 21:34:55 10° NW
BlueWalker 3 3.8 21:31:50 12° SE 21:31:50 12° SE 21:33:17 10° ESE
Cosmos 1814 Rocket 4.1 21:27:01 10° NNW 21:32:20 76° ENE 21:37:16 12° SSE
MetOp-A 4.2 21:28:25 11° SSE 21:33:27 69° ENE 21:38:41 10° N
Landsat 4 4.0 21:30:34 10° S 21:33:57 54° WSW 21:37:20 10° NNW
SL-16 R/B 3.3 21:32:32 10° NW 21:37:42 37° WSW 21:42:50 10° S
Meteor 1-23 Rocket 4.4 21:34:18 10° SSW 21:39:58 78° WNW 21:45:45 10° N
Landsat 5 3.6 21:36:08 10° NNE 21:40:05 55° ESE 21:44:09 10° S
USA 234 3.2 21:34:25 10° ENE 21:40:59 70° SE 21:47:30 10° SW
Cosmos 2333 Rocket 2.4 21:36:10 10° NNW 21:41:54 70° WSW 21:47:09 12° SSE
Cosmos 2082 Rocket 4.5 21:39:12 10° WSW 21:44:07 29° NW 21:49:04 10° NNE
SL-14 R/B 3.4 21:40:31 10° SSW 21:44:16 72° W 21:48:06 10° N
Cosmos 1346 Rocket 3.3 21:43:42 10° NNW 21:47:30 55° W 21:51:09 11° S
Cosmos 1862 Rocket 3.5 21:43:09 10° S 21:47:33 83° E 21:52:01 10° NNE
DNEPR-1 R/B 4.4 21:42:36 10° NW 21:49:34 85° SW 21:54:25 14° SE
Okean 3 3.4 21:46:08 10° S 21:50:13 72° E 21:54:25 10° NNE
Cosmos 2315 Rocket 4.5 21:44:56 10° NNW 21:51:12 61° W 21:57:27 10° S
Cosmos 1455 2.5 21:49:11 10° N 21:52:36 47° ENE 21:55:03 17° SE
Cosmos 1833 4.2 21:51:36 10° SSW 21:57:11 70° ESE 22:02:48 10° NNE
EXPRESS MD2 1.8 21:55:04 10° WSW 21:57:31 66° S 21:59:40 10° E
RESURS DK-1 4.2 21:55:57 10° WNW 21:59:07 22° WSW 22:02:17 10° SSW
CZ-4C R/B 3.7 21:58:28 11° ESE 21:59:42 12° ESE 22:01:39 10° E
Cosmos 2237 Rocket 3.7 21:56:05 10° NNW 22:01:02 29° NE 22:05:56 10° ESE
H-2A R/B 3.9 21:58:41 12° ESE 22:02:02 29° ENE 22:05:43 10° N
Meteor 1-16 Rocket 4.5 21:58:40 10° NNW 22:04:37 77° W 22:09:50 14° S
Cosmos 2322 3.9 21:59:12 10° NNW 22:04:53 69° ENE 22:09:35 15° SE
SJ 16-02 1.2 22:00:48 10° SSW 22:05:06 78° ESE 22:09:27 10° NNE
Terra 3.5 22:02:02 10° SSW 22:06:01 27° W 22:10:02 10° NW
CZ-2C R/B 4.3 22:02:23 10° NNE 22:06:33 39° E 22:09:29 17° SSE
Cosmos 1707 Rocket 4.3 22:03:43 10° SSW 22:08:04 54° WNW 22:12:26 10° N
Aureole 3 3.8 22:07:04 10° SSW 22:11:06 73° WNW 22:16:11 10° N
Cosmos 2322 Rocket 3.7 22:15:07 10° NW 22:19:53 28° WSW 22:24:38 10° SSW
NOSS 5 (C) 4.2 22:22:55 10° NW 22:26:08 86° NE 22:27:59 23° SE
ARIANE 5 R/B 2.6 22:23:17 20° SSE 22:26:15 80° ENE 22:30:36 10° NNW
ATLAS 2AS CENTAUR R/B 3.4 22:20:31 10° NW 22:26:45 39° WSW 22:31:35 16° S
SL-4 R/B 1.9 22:23:20 10° WNW 22:27:17 84° SSW 22:31:30 10° ESE
Cosmos 2297 Rocket 3.7 22:27:16 15° SE 22:29:49 20° E 22:33:52 10° NE
SL-27 R/B 4.2 22:27:42 10° WSW 22:30:01 24° WNW 22:32:23 10° N
Okean 1-7 3.3 22:30:05 13° SSW 22:33:53 67° WNW 22:38:12 10° N
Cosmos 1241 Rocket 4.4 22:31:25 10° SW 22:37:37 88° SE 22:43:55 10° NE
USA 281 3.3 22:34:22 18° SSE 22:39:27 78° WSW 22:46:05 10° NNW
Cosmos 1745 Rocket 4.1 22:34:59 18° S 22:39:48 66° E 22:46:08 10° NNE
Cosmos 1908 Rocket 4.0 22:36:19 10° NNW 22:40:34 54° W 22:43:32 19° SSW
GP-B 3.1 22:36:24 10° N 22:40:50 85° W 22:43:51 20° S
Cosmos 1782 Rocket 3.5 22:39:09 10° N 22:43:31 87° E 22:46:09 23° S
ATLAS CENTAUR R/B 2.7 22:41:12 10° WSW 22:44:28 35° NW 22:47:52 10° NNE
Spot 4 4.0 22:41:21 20° SSE 22:44:34 64° ENE 22:49:21 10° N
Cosmos 2219 Rocket 3.0 22:39:23 10° NW 22:44:42 42° WSW 22:48:35 17° S
Nadezhda 1 Rocket 4.0 22:39:36 10° N 22:45:57 86° W 22:50:31 20° S
COSMOS 2428 2.7 22:41:17 10° NNW 22:46:59 77° WSW 22:50:54 21° SSE
Okean 2 4.1 22:43:49 12° SSW 22:47:17 48° WNW 22:51:13 10° N
Meteor 1-4 Rocket 4.1 22:45:23 10° SW 22:47:55 25° WNW 22:50:30 10° NNW
BREEZE-M DEB (TANK) 2.3 22:47:26 10° W 22:51:40 58° N 22:53:45 10° E
Cosmos 1386 Rocket 4.5 22:46:55 16° S 22:52:01 90° ESE 22:58:15 10° N
Cosmos 1953 3.6 22:50:01 10° NNW 22:53:28 31° W 22:55:58 16° SSW
Cosmos 1315 Rocket 4.0 22:52:44 10° SW 22:56:26 39° WNW 23:00:13 10° N
H-2A R/B 4.0 22:54:44 10° NE 22:57:24 16° E 22:59:07 13° ESE
PSLV R/B 3.8 22:55:12 10° NNE 22:59:13 87° W 23:01:43 22° SSW
Cosmos 1300 Rocket 3.5 22:56:22 10° NNW 23:00:41 76° W 23:03:09 25° S
Cosmos 1242 Rocket 3.0 23:00:39 20° SW 23:02:09 38° WNW 23:04:46 10° N
Cosmos 304 Rocket 4.4 23:03:17 24° SSE 23:05:36 40° ESE 23:10:03 10° NE
Cosmos 158 Rocket 4.2 23:01:49 10° NNW 23:07:04 62° WSW 23:10:13 23° S
Cosmos 2360 Rocket 4.3 23:05:55 10° WNW 23:09:05 15° W 23:12:15 10° SW
BlueWalker 3 1.9 23:06:00 12° SW 23:09:18 51° SSE 23:12:57 10° ENE
Cosmos 405 Rocket 3.3 23:06:33 10° N 23:10:11 45° ENE 23:12:07 24° SE
Okean 2 Rocket 4.0 23:11:06 10° N 23:15:20 40° ENE 23:18:04 19° SE
ALOS 2 2.6 23:14:27 26° SSE 23:16:54 89° ENE 23:21:20 10° NNW
Cosmos 1378 Rocket 4.4 23:20:47 23° SE 23:22:51 38° E 23:26:55 10° NNE
COSMOS 2455 2.9 23:18:34 18° SSW 23:23:04 67° ESE 23:29:04 10° NE
USA 234 3.8 23:17:31 10° ENE 23:23:59 63° NNW 23:30:25 10° W
Cosmos 2333 Rocket 4.4 23:22:43 10° WNW 23:25:07 13° W 23:27:32 10° WSW
NOSS 0 Rocket 4.1 23:19:36 10° NW 23:25:45 61° WSW 23:29:40 23° S
Cosmos 1455 4.5 23:24:42 10° NW 23:26:38 14° W 23:28:34 10° WSW
CENTAUR R/B 3.7 23:24:42 18° SE 23:27:06 23° ESE 23:32:13 10° ENE
Cosmos 1408 2.8 23:27:13 28° SW 23:28:27 46° WNW 23:31:21 10° N
Cosmos 773 Rocket 4.0 23:23:52 10° NNW 23:29:00 73° WSW 23:32:01 25° S
Cosmos 1703 3.1 23:34:51 30° SSW 23:36:34 77° W 23:40:16 10° N
H-2A R/B 3.5 23:34:40 22° SSW 23:36:51 36° W 23:40:50 10° NNW
Cosmos 2221 Rocket 4.3 23:34:53 24° SSE 23:37:03 41° E 23:41:15 10° NNE
Cosmos 1892 3.4 23:37:30 27° SE 23:38:43 36° E 23:41:59 10° NNE
SL-16 R/B 3.2 23:33:19 10° NNW 23:38:47 44° NE 23:44:13 10° ESE
Cosmos 1174 4.1 23:33:56 10° NW 23:39:08 89° NE 23:41:41 24° SE
Cosmos 1709 Rocket 4.2 23:34:37 19° SSW 23:39:20 71° WNW 23:45:43 10° N
Sich 1 Rocket 3.7 23:36:36 10° N 23:41:01 69° ENE 23:43:22 26° SSE
Cosmos 2242 Rocket 4.1 23:39:46 21° SSW 23:42:42 55° WNW 23:47:13 10° N
SJ 16-02 3.9 23:41:08 10° W 23:44:02 17° NW 23:46:55 10° N
Cosmos 2237 Rocket 2.3 23:39:56 10° NNW 23:45:34 67° WSW 23:48:59 24° S
CZ-4C R/B 1.9 23:43:30 21° SSW 23:46:39 75° SE 23:52:28 10° NE
Cosmos 1777 Rocket 4.1 23:43:34 25° S 23:46:40 68° ESE 23:51:55 10° NNE
Cosmos 1503 Rocket 4.0 23:43:28 23° SSW 23:46:49 80° ESE 23:52:08 10° NNE
BREEZE-M DEB (TANK) 2.9 23:38:02 10° W 23:48:05 72° SSW 23:51:14 10° ESE
Cosmos 2227 Rocket 2.7 23:50:16 24° SSE 23:53:17 45° ESE 23:58:40 10° NE
GEOS 3 Rocket 4.5 23:50:05 10° ENE 23:54:42 32° ESE 23:56:49 24° SSE
